Hourly Data Report for August 19, 2003

SHERBROOKE A
QUEBEC

45°26'00.000" N
71°41'00.000" W
241.40 m
7028124
71610
YSC

Download Data

Hourly Data (August 2003)
Hourly Data Report for August 19, 2003
TIME
LST
Temp Definition
°C
Dew Point Definition
°C
Rel Hum Definition
%
Precip. Amount Definition
mm

Wind Dir Definition
10's deg

Wind Spd Definition
km/h
Visibility Definition
km
Stn Press Definition
kPa
Hmdx Definition


Wind Chill Definition


Weather Definition


00:00 12.5 11.6 94   11 4 15.0 99.10      
01:00 12.1 11.2 94     0 15.0 99.07      
02:00 11.6 10.7 94   9 6 15.0 99.03      
03:00 10.5 9.8 95     0 15.0 99.05      
04:00 10.0 9.4 96   13 4 11.3 99.07      
05:00 9.6 8.7 94     0 5.6 99.10      
06:00 12.5 11.6 94   9 4 15.0 99.14      
07:00 16.5 14.1 86   23 4 24.1 99.16     Mainly Clear
08:00 19.5 15.6 78   20 7 24.1 99.12     Clear
09:00 22.3 16.7 71   26 13 24.1 99.10 27   Clear
10:00 24.5 17.3 64   25 15 24.1 99.06 30   Clear
11:00 25.7 14.6 50   25 24 24.1 99.02 29   Mainly Clear
12:00 26.4 14.9 49   26 22 24.1 99.00 30   Mainly Clear
13:00 26.2 14.7 49   27 20 24.1 98.97 30   Clear
14:00 26.3 12.8 43   26 26 24.1 98.91 29   Clear
15:00 26.2 11.0 39   25 22 24.1 98.98 28   Clear
16:00 25.9 11.4 40   26 20 24.1 98.89 28   Clear
17:00 24.8 11.6 44   28 11 15.0 98.90 27    
18:00 23.3 12.9 52   25 11 15.0 98.90 26    
19:00 21.3 13.0 59   26 11 15.0 98.90      
20:00 21.8 13.3 58   25 11 15.0 98.96 25    
21:00 21.8 13.8 60   24 9 15.0 98.98 25    
22:00 21.5 13.7 61   25 11 15.0 98.98 25    
23:00 21.3 14.3 64   24 9 15.0 99.01 25    

Notes on Data Quality.

Legend

  • E = Estimated
  • M = Missing
  • NA = Not Available*
  • [empty] = Indicates an unobserved value
Date modified: